Hlavní strana
METAR-TAF:

METAR-TAF

Letiště :

Dalton Municipal Airport

Dalton, Georgie, Spojené státy americké

zeměpisná šířka: 34-43-18N, zeměpisná délka: 084-52-09W, výška: 216 m

Aktuální stav počasí

Zpráva byla vytvořena před 18 minutami, v 02:35 UTC
Bezvětří
Teplota 9°C
Vlhkost vzduchu 93%
Tlak 1028 hPa
Viditelnost: 16.1 km
Jasno

METAR: KDNN 190235Z AUTO 00000KT 10SM CLR 09/08 A3037 RMK AO2

Čas: 22:53 (02:53 UTC)


TAF: chybějící

Stav a předpovědi počasí z více než 4 000 letišť (zprávy METAR a TAF).

Červené a žluté tečky na mapě představují dostupné meteorologické stanice.

Když kurzor umístíte na tečku, zobrazí se název stanice.

Pak kliknutím zobrazíte stav a předpověď počasí.

Chcete-li změnit mapu, kliknutím na zelené tlačítko se znaménkem +mapu přiblížíte, kliknutím na zelené tlačítko se znaménkem – mapu oddálíte a kliknutím na zelené šipky přejdete na sousední mapy.


METAR-TAF: